This demonstration page uses our WeatherBlox Daily Observations layout. Learn more.

Left ArrowRight Arrow

Hourly Observations for August 5, 2021

Temp ( °F °C ) Dew Point ( °F °C ) Humidity (%) Winds ( mph kmh ) Pressure ( in mb ) Visibility ( mi km ) Precip ( " mm )
12:06 am 00:06 Cloudy 71 21.7 66 18.9 84 84 NNE 14 22 30.06 1018 9 14 0.00 0.00
12:55 am 00:55 Cloudy 72 22 66 19 83 83 NNE 10 17 30.07 1018 9 14 0.00 0.00
12:59 am 00:59 Cloudy 72 22.2 66 18.9 82 82 NNE 10 17 30.06 1018 9 14 0.00 0.00
1:59 am 01:59 Cloudy 72 22.2 66 18.9 82 82 NNE 13 20 30.04 1017 9 14 0.00 0.00
2:36 am 02:36 Cloudy 72 22.2 66 18.9 82 82 NNE 10 17 30.04 1017 10 16 0.00 0.00
2:59 am 02:59 Cloudy 72 22.2 66 18.9 82 82 NNE 13 20 30.03 1017 10 16 0.00 0.00
3:59 am 03:59 Mostly Cloudy 73 22.8 66 18.9 79 79 NNE 10 17 30.05 1018 10 16 0.00 0.00
4:59 am 04:59 Mostly Cloudy 73 22.8 66 18.9 79 79 NNE 8 13 30.06 1018 9 14 0.00 0.00
5:46 am 05:46 Mostly Cloudy 72 22.2 66 18.9 82 82 N 8 13 30.07 1018 8 13 0.01 0.25
5:59 am 05:59 Mostly Cloudy 72 22.2 66 18.9 82 82 NNW 9 15 30.08 1019 9 14 0.01 0.25
6:13 am 06:13 Mostly Cloudy 71 21.7 66 18.9 84 84 N 7 11 30.08 1019 9 14 0.00 0.00
6:59 am 06:59 Mostly Cloudy 71 21.7 66 18.9 84 84 N 7 11 30.10 1019 7 11 0.00 0.00
7:59 am 07:59 Mostly Cloudy 71 21.7 66 18.9 84 84 N 8 13 30.11 1020 8 13 0.00 0.00
8:59 am 08:59 Mostly Cloudy 73 22.8 66 18.9 79 79 NNE 10 17 30.12 1020 8 13 0.00 0.00
9:59 am 09:59 Mostly Cloudy 77 25 66 18.9 69 69 N 13 20 30.14 1021 9 14 0.00 0.00
10:59 am 10:59 Partly Cloudy 77 25 62 16.7 60 60 N 13 20 30.15 1021 9 14 0.00 0.00
11:59 am 11:59 Partly Cloudy 78 25.6 64 17.8 62 62 N 12 19 30.17 1022 9 14 0.00 0.00
12:59 pm 12:59 Partly Cloudy 78 25.6 63 17.2 60 60 NE 9 15 30.16 1022 9 14 0.00 0.00
1:59 pm 13:59 Partly Cloudy 79 26.1 62 16.7 56 56 NE 10 17 30.15 1021 9 14 0.00 0.00
2:59 pm 14:59 Partly Cloudy 79 26.1 61 16.1 54 54 NE 9 15 30.15 1021 8 13 0.00 0.00
3:59 pm 15:59 Mostly Sunny 80 26.7 59 15 49 49 E 8 13 30.14 1021 8 13 0.00 0.00
4:59 pm 16:59 Mostly Sunny 80 26.7 57 13.9 45 45 NE 6 9 30.14 1021 9 14 0.00 0.00
5:59 pm 17:59 Mostly Sunny 80 26.7 58 14.4 47 47 Calm 30.13 1020 9 14 0.00 0.00
6:59 pm 18:59 Mostly Sunny 79 26.1 58 14.4 49 49 E 3 6 30.14 1021 9 14 0.00 0.00
7:59 pm 19:59 Mostly Sunny 73 22.8 62 16.7 69 69 E 3 6 30.15 1021 8 13 0.00 0.00
8:59 pm 20:59 Mostly Clear 72 22.2 59 15 64 64 ESE 5 7 30.15 1021 9 14 0.00 0.00
9:59 pm 21:59 Mostly Clear 71 21.7 59 15 66 66 SSE 5 7 30.17 1022 10 16 0.00 0.00
10:59 pm 22:59 Mostly Clear 70 21.1 62 16.7 76 76 SSE 3 6 30.18 1022 9 14 0.00 0.00
11:59 pm 23:59 Mostly Clear 69 20.6 64 17.8 84 84 S 3 6 30.18 1022 9 14 0.00 0.00

Powered by AerisWeather